Dewpoint
22 23 23 23 22 22 22 21 20 20 19 19 19 19 20 19 19 19 19 18 17 16 15 14 14 12 12 11 11 10 10 9 9 8 8 8 8 8 7 6 6 6 6 6 5 4 4 5 6 5 4 3 2 3 2 4 4 3 4 2 3 5 4 4 2 4 5 6 2 1 1 -10 -3 -5 -1 -0 -4 -6 -1 -6 -5 -6 -7 -7 -7
21 21 22 21 21 21 21 20 20 19 19 18 19 19 19 18 18 18 17 18 17 16 15 14 13 12 11 11 11 10 9 9 9 8 8 8 9 8 7 7 6 6 5 5 6 5 4 4 4 5 4 3 4 2 1 1 2 1 2 3 2 4 4 2 -0 0 3 4 -2 4 -5 -11 -6 -13 -3 -1 0 -4 -5 -4 -5 -6 -6 -7 -7
20 20 20 20 20 20 19 19 18 18 18 18 18 18 18 17 17 16 16 16 16 15 14 14 12 12 11 10 10 10 9 8 8 8 8 8 8 8 7 7 7 6 6 6 6 5 4 4 5 5 3 2 3 1 2 1 1 0 1 1 1 2 3 3 1 -1 1 -0 1 -1 -3 -9 -14 -10 -13 -7 -0 -1 1 -2 -4 -5 -5 -5 -6
19 19 19 19 19 19 19 18 18 18 18 18 18 17 17 17 16 15 15 15 14 14 13 12 11 11 10 10 10 9 9 8 8 9 8 8 8 7 7 7 6 6 6 6 6 5 4 5 5 5 3 3 3 1 0 1 -0 -1 0 -1 -1 -0 1 1 3 0 -1 -2 -1 -2 -5 -16 -15 -17 -15 -11 -9 0 0 1 -3 1 -5 -5 -5
18 18 18 18 18 18 18 18 18 18 18 18 18 18 17 16 16 16 15 15 14 13 13 12 11 10 9 10 10 9 9 9 8 8 8 8 7 7 6 6 6 6 6 6 5 5 5 4 5 5 4 3 3 1 0 1 1 -1 -1 -2 -3 -2 -2 -2 -1 -0 -1 -3 -3 -5 -5 -14 -15 -14 -13 -13 -12 -1 1 2 2 0 -2 -3 -4
17 17 17 17 17 17 18 18 17 17 17 18 18 17 17 17 16 16 15 14 15 14 12 12 12 11 10 10 10 10 10 9 8 8 8 8 7 6 6 5 5 6 6 6 5 5 4 4 4 4 4 3 2 2 3 2 2 1 1 -1 -2 -3 -3 -4 -5 -5 -4 -7 -7 -7 -4 -13 -15 -15 -13 -12 -11 -6 -1 1 2 3 2 1 1
16 16 16 16 16 16 16 16 16 16 16 16 17 17 17 16 16 16 15 14 13 13 13 12 11 10 11 10 10 9 9 9 8 8 8 7 7 6 6 6 6 6 5 5 4 4 4 4 4 4 3 4 3 3 2 2 1 1 0 1 -0 -2 -4 -4 -4 -5 -6 -6 -7 -6 -8 -9 -13 -14 -13 -11 -9 -7 -2 -3 -1 1 1 1 -0
15 14 14 14 15 15 14 15 15 15 15 16 16 16 16 16 15 15 15 14 14 14 13 12 11 11 10 10 10 9 9 8 8 8 7 7 7 7 6 6 6 6 6 5 4 4 3 3 3 4 4 4 3 3 3 0 1 0 0 0 -0 -1 -4 -4 -4 -5 -6 -5 -9 -9 -11 -10 -13 -12 -10 -9 -9 -7 -3 -3 -2 -2 -1 0 0
13 12 12 12 12 12 12 13 13 13 14 14 15 15 15 15 15 14 14 14 14 13 12 11 10 9 10 9 9 9 8 8 7 7 7 7 7 7 7 7 6 6 6 6 5 4 3 3 3 3 4 4 5 4 3 2 1 -1 1 1 0 -1 -2 -4 -5 -6 -7 -6 -7 -5 -9 -8 -9 -7 -10 -9 -8 -5 -6 -4 -2 -1 -1 -1 0
10 10 10 9 9 9 10 11 11 11 12 12 13 13 13 13 13 13 13 13 13 12 11 10 10 9 9 9 9 8 7 7 7 7 8 7 7 7 7 7 6 6 6 5 5 5 4 3 3 4 4 4 5 5 6 6 5 3 1 1 0 -1 -2 -3 -4 -5 -6 -7 -7 -7 -7 -6 -9 -10 -8 -9 -8 -6 -5 -5 -3 -4 -2 -1 -1
8 8 8 8 8 8 8 9 9 9 10 10 11 12 12 12 12 12 12 13 12 12 11 10 10 10 10 9 8 8 8 8 8 11 13 14 11 9 8 7 7 6 6 5 4 5 5 4 4 4 4 4 4 5 6 6 7 6 6 4 2 1 -1 -2 -3 -2 -5 -6 -6 -5 -7 -6 -6 -8 -9 -7 -6 -4 -2 -2 -2 -1 -2 -5 -6
7 7 6 7 7 7 7 7 7 7 8 9 9 10 11 11 12 12 12 12 11 11 10 10 10 10 9 9 8 7 8 8 11 13 15 16 15 13 11 9 8 7 6 6 5 5 5 5 4 3 3 3 4 4 5 6 6 5 5 5 5 5 4 1 -1 -2 -2 -4 -4 -4 -4 -5 -5 -4 -4 -3 -3 -2 -1 -1 -1 -2 -2 -4 -5
4 4 5 5 5 5 6 6 6 7 7 7 9 9 9 10 10 11 11 11 11 11 11 10 10 10 10 9 8 8 9 9 12 13 15 16 17 15 14 12 10 9 8 7 6 6 6 6 6 4 3 4 3 3 3 3 3 4 5 5 4 5 5 5 5 3 1 -1 -2 -3 -4 -4 -4 -3 -1 -1 1 -0 -0 -2 -1 -2 -2 -5 -6
2 3 3 3 2 3 4 5 5 6 6 7 7 7 8 8 9 9 10 11 11 10 10 10 10 10 9 9 9 9 9 10 11 14 15 16 17 16 15 14 13 11 11 10 8 7 7 7 6 6 5 3 3 3 3 2 1 1 3 3 3 2 3 4 4 4 4 1 0 -1 -1 -2 -5 -3 1 2 1 -1 -1 -2 -0 -2 -3 -4 -4
-1 -1 0 0 0 1 2 2 3 4 5 6 6 6 6 7 7 8 9 9 9 9 9 9 9 10 9 9 9 9 9 10 12 13 14 16 16 15 14 14 13 13 12 11 10 9 9 8 7 7 7 5 3 3 3 2 1 0 1 1 1 2 2 2 1 1 1 2 2 2 2 1 -1 0 3 4 3 2 1 1 1 -1 -3 -4 -7
-3 -2 -1 -1 -1 -1 -0 1 2 3 5 5 5 5 6 6 6 7 8 8 9 9 9 9 9 9 9 9 9 9 9 11 12 13 14 15 15 13 12 12 12 12 12 12 11 10 10 9 8 7 7 7 5 5 4 3 2 0 0 0 1 1 1 2 4 4 2 1 1 2 2 1 4 3 5 4 4 3 -0 -3 -5 -8 -12 -13 -11
-3 -3 -3 -2 -2 -2 -1 -0 1 3 4 5 5 4 5 5 6 7 7 7 7 7 8 8 9 9 9 9 8 8 9 10 11 11 12 14 13 11 11 10 10 10 10 11 10 10 10 9 8 7 7 7 7 6 6 5 2 1 -0 -0 0 0 -0 2 4 5 7 8 9 11 11 10 9 6 5 4 3 2 -5 -10 -12 -14 -14 -13 -11
-4 -3 -3 -3 -3 -2 -1 0 1 3 4 4 4 4 5 5 6 6 6 6 6 7 7 7 7 7 8 7 8 7 8 8 9 10 11 13 12 9 8 8 8 8 9 10 9 9 9 9 8 7 6 6 7 7 8 6 3 1 0 -0 -1 -1 -1 1 2 2 5 6 7 9 7 3 1 -1 -1 0 0 -1 -10 -12 -11 -13 -13 -12 -12
-4 -4 -4 -3 -3 -2 -1 0 1 2 3 4 4 4 5 5 5 6 5 6 6 6 6 5 5 5 6 7 7 7 6 7 8 9 10 11 10 8 7 6 6 6 6 6 7 7 8 8 8 7 6 6 7 8 8 7 4 2 1 0 -1 -1 -0 2 2 1 1 1 1 3 2 0 -3 -5 -6 -6 -5 -3 -6 -9 -11 -12 -12 -12 -12
-5 -4 -4 -4 -3 -2 -1 -0 0 1 1 1 2 3 4 4 5 5 5 4 4 4 4 4 5 4 6 6 6 6 6 6 7 8 9 9 10 7 6 5 5 5 5 5 5 6 6 7 7 8 8 8 7 8 9 8 5 4 3 1 -0 -0 2 2 2 1 1 0 1 2 1 -0 -3 -4 -5 -6 -7 -7 -7 -7 -9 -11 -11 -12 -13
-5 -5 -5 -4 -4 -3 -2 -1 -1 -0 0 0 1 2 3 3 4 4 4 3 4 3 3 4 3 3 2 3 4 5 5 5 6 7 8 8 8 7 5 5 5 5 5 5 5 5 4 5 6 7 7 8 8 8 9 9 8 5 3 2 2 2 4 2 1 2 1 0 0 -1 -1 -2 -3 -5 -6 -6 -7 -8 -6 -6 -7 -8 -10 -12 -13
-6 -6 -6 -5 -4 -4 -3 -2 -2 -2 -1 -1 -1 -0 2 3 3 3 2 2 3 2 3 2 -0 -0 0 2 2 2 2 4 4 5 6 7 7 7 5 5 6 4 3 3 4 4 5 5 5 7 8 8 8 9 9 9 9 7 5 5 5 5 4 3 3 1 -0 -1 -1 -2 -2 -2 -3 -4 -6 -6 -7 -8 -8 -8 -9 -9 -10 -9 -12
-7 -7 -6 -6 -5 -4 -4 -3 -3 -3 -3 -3 -2 -2 -0 1 1 2 2 1 1 1 1 1 0 -1 -1 -2 -0 1 1 0 2 3 4 5 6 6 6 5 6 4 3 3 3 3 4 5 6 7 9 8 9 9 9 8 8 7 8 9 8 8 6 4 2 1 -1 -1 -2 -3 -3 -3 -3 -5 -6 -5 -5 -5 -7 -7 -8 -9 -10 -10 -10
-9 -7 -7 -7 -6 -5 -5 -4 -3 -4 -4 -4 -4 -3 -2 -1 -1 -2 -0 -1 -2 -2 -3 -2 -2 -3 -2 -3 -2 -2 -1 -2 0 1 2 3 3 5 5 5 5 4 3 2 3 3 4 5 6 8 8 9 9 9 8 8 6 7 7 7 7 5 4 2 0 -0 -2 -2 -3 -3 -3 -3 -4 -6 -6 -5 -5 -5 -6 -6 -8 -8 -10 -12 -10
-10 -9 -8 -7 -7 -7 -6 -5 -4 -5 -5 -5 -5 -5 -4 -4 -4 -4 -2 -3 -4 -4 -4 -4 -4 -4 -3 -4 -4 -4 -3 -3 -2 -1 1 1 2 2 3 3 3 4 2 2 3 2 5 7 8 8 8 8 7 7 6 5 5 5 4 4 3 2 1 0 -1 -1 -3 -3 -4 -4 -4 -4 -5 -5 -4 -5 -6 -7 -8 -8 -8 -10 -11 -11 -11
-9 -9 -9 -9 -8 -7 -7 -6 -6 -6 -6 -7 -7 -7 -7 -6 -6 -6 -5 -5 -5 -6 -5 -5 -5 -5 -6 -6 -6 -5 -4 -4 -4 -3 -1 -1 -0 0 1 1 1 2 3 2 3 4 5 5 5 6 6 6 5 4 3 3 3 3 2 2 0 -1 -1 -2 -3 -4 -4 -4 -5 -5 -5 -5 -5 -5 -6 -7 -8 -7 -7 -10 -11 -13 -13 -15 -16
-10 -9 -9 -10 -9 -8 -8 -9 -9 -8 -8 -9 -9 -9 -9 -8 -7 -6 -6 -7 -7 -7 -6 -6 -6 -7 -7 -7 -7 -6 -6 -6 -6 -5 -5 -5 -5 -3 -3 -2 0 1 -1 -1 1 -0 1 2 3 5 5 5 5 4 3 2 1 1 0 -1 -2 -2 -3 -3 -4 -4 -5 -5 -6 -6 -6 -5 -6 -8 -7 -8 -7 -7 -8 -11 -13 -14 -15 -16 -17
-11 -10 -10 -10 -11 -10 -9 -10 -10 -11 -10 -10 -11 -11 -10 -9 -8 -7 -7 -7 -8 -8 -7 -7 -8 -8 -9 -8 -8 -8 -8 -7 -7 -7 -6 -6 -5 -5 -4 -3 -4 -4 -3 -2 -1 -0 -0 2 2 1 1 1 0 0 -0 -0 -1 -2 -2 -2 -3 -4 -6 -5 -5 -5 -5 -5 -5 -5 -6 -6 -7 -6 -6 -7 -7 -8 -10 -12 -14 -16 -17 -17 -18
-12 -11 -12 -12 -12 -11 -11 -11 -11 -12 -12 -11 -11 -11 -10 -10 -10 -8 -6 -6 -7 -7 -7 -8 -8 -8 -9 -9 -9 -10 -9 -9 -7 -4 -4 -3 -4 -5 -5 -5 -5 -6 -3 -0 -1 -2 -2 -1 -2 -2 -2 -2 -3 -3 -2 -2 -2 -2 -2 -3 -4 -5 -6 -6 -6 -6 -5 -6 -6 -6 -6 -6 -6 -7 -7 -7 -8 -8 -10 -12 -14 -16 -18 -18 -19
-12 -12 -13 -14 -13 -12 -12 -13 -12 -13 -13 -14 -13 -12 -10 -9 -9 -9 -8 -7 -6 -5 -3 -7 -8 -9 -9 -9 -8 -8 -9 -8 -4 -4 -4 -3 -3 -3 -3 -3 -3 -5 -3 -2 -3 -6 -6 -5 -5 -5 -5 -5 -5 -5 -5 -4 -4 -4 -4 -4 -4 -5 -5 -6 -6 -6 -6 -6 -6 -6 -6 -7 -7 -7 -7 -8 -8 -9 -11 -14 -15 -17 -19 -20 -19
-16 -15 -16 -16 -15 -14 -13 -14 -14 -14 -14 -14 -14 -14 -13 -12 -10 -8 -9 -9 -8 -6 -5 -7 -7 -7 -8 -10 -8 -6 -6 -5 -5 -5 -4 -4 -4 -4 -4 -4 -5 -4 -4 -6 -8 -8 -8 -7 -7 -7 -6 -6 -6 -6 -5 -5 -6 -5 -5 -5 -5 -5 -5 -6 -6 -6 -7 -7 -7 -7 -7 -7 -7 -7 -8 -9 -9 -10 -11 -13 -16 -18 -19 -20 -20
-17 -18 -17 -16 -15 -15 -15 -15 -15 -15 -15 -15 -15 -15 -15 -15 -14 -11 -9 -11 -10 -9 -8 -9 -9 -9 -8 -8 -8 -10 -8 -7 -6 -6 -5 -5 -5 -5 -5 -5 -6 -5 -5 -6 -10 -10 -9 -9 -9 -8 -8 -8 -7 -7 -6 -6 -6 -6 -6 -6 -7 -6 -6 -6 -5 -6 -6 -7 -7 -7 -8 -8 -8 -8 -9 -10 -11 -11 -12 -14 -17 -18 -19 -20 -20
-18 -18 -17 -17 -17 -17 -17 -17 -16 -16 -16 -16 -16 -15 -15 -15 -16 -16 -14 -11 -11 -11 -11 -11 -11 -11 -10 -9 -8 -8 -8 -7 -7 -6 -6 -6 -6 -6 -7 -7 -7 -7 -7 -11 -12 -12 -12 -11 -11 -10 -10 -10 -9 -8 -8 -7 -7 -6 -6 -6 -7 -7 -6 -5 -6 -6 -7 -7 -7 -7 -8 -8 -9 -10 -11 -11 -12 -12 -13 -15 -17 -18 -19 -20 -20
-17 -19 -18 -17 -17 -18 -18 -18 -18 -17 -17 -16 -16 -15 -15 -15 -16 -15 -15 -16 -15 -14 -13 -14 -13 -13 -12 -11 -10 -9 -9 -8 -8 -7 -7 -7 -7 -7 -7 -10 -9 -9 -10 -12 -13 -13 -13 -13 -12 -12 -11 -11 -10 -10 -10 -9 -8 -7 -7 -7 -6 -6 -5 -5 -6 -7 -7 -8 -8 -8 -8 -9 -10 -10 -11 -11 -12 -13 -14 -15 -17 -19 -20 -21 -21
-18 -19 -19 -19 -19 -19 -19 -19 -18 -17 -17 -17 -17 -16 -16 -16 -16 -16 -16 -16 -17 -17 -17 -16 -15 -14 -14 -13 -12 -11 -11 -10 -9 -8 -8 -8 -8 -9 -10 -13 -14 -13 -13 -12 -13 -13 -13 -13 -13 -13 -12 -12 -11 -11 -11 -9 -9 -9 -8 -8 -7 -7 -7 -7 -7 -7 -8 -8 -8 -8 -9 -10 -10 -11 -12 -13 -13 -13 -14 -15 -17 -19 -20 -21 -21
-17 -18 -18 -18 -19 -19 -19 -19 -19 -19 -18 -17 -16 -16 -17 -18 -17 -17 -17 -16 -17 -17 -17 -17 -16 -15 -14 -14 -13 -13 -12 -11 -10 -10 -10 -9 -9 -11 -15 -15 -15 -14 -14 -13 -13 -13 -13 -13 -13 -13 -13 -12 -12 -12 -11 -11 -10 -9 -9 -9 -9 -8 -8 -8 -8 -8 -8 -8 -8 -9 -9 -10 -11 -12 -12 -13 -14 -15 -15 -17 -19 -20 -20 -21 -22
-18 -18 -18 -19 -18 -19 -19 -19 -20 -19 -17 -16 -17 -18 -19 -19 -18 -18 -18 -18 -18 -18 -18 -17 -17 -17 -16 -16 -15 -14 -13 -12 -11 -12 -12 -12 -12 -14 -15 -15 -15 -15 -15 -15 -14 -14 -14 -14 -13 -13 -13 -13 -13 -12 -12 -11 -11 -10 -9 -9 -9 -8 -8 -8 -8 -9 -8 -8 -9 -9 -10 -10 -11 -12 -13 -14 -14 -14 -16 -18 -20 -20 -21 -21 -22
-18 -19 -18 -18 -17 -17 -18 -19 -20 -19 -18 -19 -19 -19 -20 -20 -19 -19 -19 -19 -19 -19 -19 -18 -17 -18 -18 -17 -15 -16 -15 -13 -14 -14 -14 -14 -15 -16 -16 -16 -15 -16 -16 -15 -14 -14 -15 -14 -13 -13 -13 -13 -13 -12 -12 -12 -11 -11 -11 -10 -10 -9 -9 -9 -10 -9 -10 -9 -9 -10 -11 -11 -12 -13 -14 -14 -15 -17 -19 -20 -21 -22 -22 -22 -22
-18 -19 -19 -19 -18 -19 -19 -20 -21 -21 -20 -20 -19 -20 -20 -20 -20 -20 -20 -20 -20 -20 -19 -19 -19 -18 -18 -18 -18 -16 -16 -17 -17 -17 -17 -17 -16 -16 -16 -16 -16 -16 -16 -15 -15 -15 -15 -15 -14 -14 -13 -14 -13 -13 -13 -13 -12 -12 -11 -11 -11 -11 -10 -10 -9 -9 -10 -10 -10 -10 -11 -12 -12 -13 -14 -15 -16 -18 -20 -20 -21 -22 -22 -22 -22
-19 -18 -19 -20 -19 -20 -20 -20 -21 -22 -21 -21 -21 -20 -20 -21 -20 -20 -20 -20 -21 -20 -20 -20 -19 -19 -18 -18 -18 -18 -18 -18 -18 -18 -18 -17 -17 -17 -16 -17 -17 -17 -17 -16 -16 -16 -16 -16 -15 -15 -14 -14 -14 -14 -13 -13 -13 -13 -12 -12 -12 -12 -11 -11 -11 -11 -11 -11 -11 -11 -12 -12 -13 -14 -15 -16 -18 -20 -21 -22 -22 -22 -22 -22 -22
-19 -20 -20 -20 -20 -21 -21 -21 -22 -22 -22 -22 -21 -21 -21 -21 -20 -20 -21 -21 -21 -21 -20 -20 -20 -19 -19 -18 -16 -16 -18 -19 -18 -18 -18 -18 -18 -18 -17 -17 -17 -17 -17 -17 -17 -17 -17 -17 -16 -16 -15 -15 -14 -14 -14 -14 -14 -14 -14 -14 -13 -13 -12 -11 -11 -11 -12 -12 -12 -12 -12 -13 -14 -15 -15 -15 -17 -20 -21 -22 -22 -23 -23 -22 -22
-21 -20 -20 -20 -21 -21 -22 -22 -22 -21 -22 -23 -22 -22 -21 -21 -21 -21 -21 -21 -21 -21 -21 -20 -20 -20 -19 -18 -17 -17 -18 -19 -19 -19 -19 -19 -19 -18 -18 -17 -17 -17 -17 -17 -17 -17 -18 -17 -17 -17 -16 -15 -15 -15 -15 -15 -15 -15 -15 -15 -15 -14 -14 -13 -13 -13 -13 -13 -13 -13 -13 -14 -15 -16 -16 -17 -19 -21 -22 -23 -23 -23 -22 -22 -21
-22 -22 -21 -22 -22 -22 -23 -23 -22 -22 -23 -23 -23 -22 -21 -21 -21 -21 -22 -22 -22 -22 -22 -21 -21 -20 -20 -19 -19 -19 -20 -20 -20 -19 -19 -19 -19 -19 -18 -18 -18 -17 -17 -17 -17 -17 -17 -17 -17 -17 -16 -15 -14 -15 -15 -15 -15 -15 -16 -16 -16 -15 -15 -15 -14 -14 -13 -14 -13 -14 -14 -14 -15 -15 -16 -19 -20 -22 -22 -22 -22 -22 -21 -21 -20
-23 -23 -23 -23 -23 -23 -24 -24 -24 -22 -23 -22 -23 -22 -22 -22 -22 -22 -22 -22 -22 -22 -22 -21 -21 -21 -21 -21 -21 -21 -21 -20 -20 -20 -19 -20 -19 -19 -19 -18 -18 -18 -18 -17 -17 -16 -17 -17 -17 -16 -15 -15 -14 -14 -14 -15 -15 -15 -15 -16 -16 -16 -16 -15 -15 -14 -14 -15 -15 -15 -14 -15 -16 -17 -20 -21 -21 -22 -22 -22 -21 -21 -21 -21 -20
-24 -24 -24 -24 -24 -24 -24 -24 -24 -24 -23 -23 -24 -23 -22 -22 -22 -22 -22 -22 -22 -22 -22 -22 -21 -22 -22 -22 -21 -22 -21 -21 -21 -20 -20 -20 -20 -19 -19 -18 -18 -18 -18 -18 -17 -17 -17 -17 -16 -16 -16 -16 -15 -15 -15 -15 -15 -15 -15 -15 -16 -16 -16 -15 -15 -15 -15 -15 -15 -15 -15 -16 -17 -20 -21 -21 -22 -22 -23 -22 -21 -21 -21 -19 -18
-24 -25 -25 -25 -25 -25 -25 -24 -24 -23 -23 -25 -24 -24 -23 -21 -21 -22 -22 -22 -22 -22 -22 -22 -22 -22 -22 -22 -22 -22 -22 -21 -21 -21 -20 -20 -20 -20 -19 -19 -18 -18 -18 -18 -18 -17 -18 -17 -17 -17 -17 -16 -16 -16 -16 -15 -15 -15 -15 -16 -16 -16 -16 -16 -16 -17 -16 -15 -16 -16 -17 -19 -20 -21 -22 -22 -23 -23 -22 -21 -21 -21 -19 -19 -18
-24 -24 -25 -25 -25 -25 -25 -25 -25 -25 -24 -24 -23 -23 -24 -23 -23 -22 -22 -23 -23 -23 -23 -22 -22 -22 -22 -22 -22 -22 -22 -22 -21 -21 -20 -20 -19 -19 -19 -19 -19 -19 -18 -18 -17 -18 -17 -17 -17 -17 -17 -16 -16 -16 -16 -16 -16 -16 -16 -16 -16 -16 -17 -17 -17 -17 -18 -18 -19 -20 -21 -21 -21 -21 -22 -22 -23 -22 -22 -22 -21 -19 -19 -19 -19
-24 -24 -25 -25 -25 -25 -25 -25 -24 -25 -25 -25 -24 -24 -24 -24 -23 -23 -23 -23 -23 -23 -23 -23 -23 -22 -23 -22 -22 -22 -22 -22 -21 -21 -21 -20 -20 -20 -19 -19 -19 -19 -19 -19 -18 -18 -18 -17 -17 -17 -17 -17 -17 -17 -17 -17 -16 -16 -16 -16 -16 -16 -17 -18 -17 -17 -18 -19 -20 -20 -20 -20 -21 -21 -22 -22 -22 -22 -22 -21 -20 -20 -19 -19 -19
-24 -24 -25 -25 -25 -25 -25 -25 -25 -25 -25 -25 -25 -25 -24 -24 -24 -23 -23 -23 -23 -23 -23 -23 -23 -23 -23 -23 -23 -22 -22 -22 -21 -21 -21 -21 -20 -19 -19 -19 -19 -19 -20 -20 -19 -18 -18 -18 -17 -17 -17 -17 -17 -17 -17 -17 -17 -17 -16 -16 -16 -17 -17 -18 -18 -17 -18 -19 -19 -19 -20 -21 -21 -22 -22 -22 -22 -21 -21 -20 -20 -20 -19 -19 -19
-24 -25 -25 -25 -26 -25 -25 -25 -25 -25 -25 -25 -25 -25 -25 -24 -24 -24 -23 -24 -24 -24 -24 -24 -24 -23 -23 -23 -23 -23 -22 -22 -22 -21 -21 -20 -20 -19 -19 -19 -19 -20 -20 -20 -20 -19 -18 -18 -17 -17 -17 -17 -17 -17 -17 -17 -17 -17 -16 -16 -16 -17 -17 -18 -18 -18 -19 -19 -19 -20 -21 -22 -22 -22 -21 -21 -20 -20 -20 -20 -19 -19 -19 -19 -19
-25 -25 -25 -25 -26 -25 -25 -25 -25 -25 -25 -25 -25 -25 -25 -24 -24 -24 -24 -24 -24 -24 -24 -24 -24 -24 -24 -23 -23 -23 -23 -22 -22 -21 -21 -20 -20 -20 -20 -20 -20 -20 -20 -20 -20 -19 -19 -18 -18 -18 -17 -17 -17 -17 -17 -17 -17 -17 -16 -16 -17 -17 -18 -18 -18 -18 -19 -20 -19 -21 -22 -22 -21 -21 -21 -21 -20 -20 -20 -21 -20 -20 -20 -20 -19